Location: Unspecified
(17.6330°N, 0.0000°E)
Time: 10:59:50
(UTC+00:00)

DX 1 - Visible Passes

Search period start: 23 July 2019 00:00
Search period end: 02 August 2019 00:00
Orbit: 618 x 632 km, 98.4° (Epoch: 23 July)

Date Brightness Start Highest point End Pass type
(mag) Time Alt. Az. Time Alt. Az. Time Alt. Az.
23 Jul ? 03:26:52 47° E 03:27:13 48° ENE 03:31:24 10° N visible
24 Jul ? 03:45:59 88° SSE 03:46:02 89° ENE 03:50:22 10° NNW visible
25 Jul ? 04:05:06 48° W 04:05:06 48° W 04:09:04 10° NNW visible
26 Jul ? 02:46:57 13° E 02:47:53 14° ENE 02:50:11 10° NE visible
26 Jul ? 04:24:13 27° W 04:24:13 27° W 04:27:25 10° NW visible
27 Jul ? 03:06:05 24° E 03:06:37 25° ENE 03:10:08 10° NNE visible
27 Jul ? 04:43:21 15° W 04:43:21 15° W 04:45:11 10° WNW visible
28 Jul ? 03:25:12 43° E 03:25:23 43° ENE 03:29:30 10° N visible
29 Jul ? 03:44:20 79° NE 03:44:20 79° NE 03:48:31 10° N visible
30 Jul ? 04:03:27 52° WNW 04:03:27 52° WNW 04:07:15 10° NNW visible
31 Jul ? 02:45:18 12° E 02:46:03 13° ENE 02:48:00 10° NE visible
31 Jul ? 04:22:35 28° W 04:22:35 28° W 04:25:40 10° NW visible
01 Aug ? 03:04:26 22° E 03:04:47 22° ENE 03:08:09 10° NNE visible
01 Aug ? 04:41:43 16° W 04:41:43 16° W 04:43:34 10° WNW visible
